Powrót do katalogu

CZ-6A DEB

AktywnyPO
NORAD 60634·DEBRIS·🇨🇳 China

Wystrzelony Aug 6, 2024 z Taiyuan Satellite Launch Center

Loading…

Następne Przeloty (najbliższe 24 godziny)

TLE

ŚwieżeSource: Space-Track

Epoka: Sep 14, 2026, 06:24 UTC

1 60634U 24140AK  26257.26721194  .00006288  00000-0  47456-3 0  9997
2 60634  89.0575 261.8844 0126662 186.6843 173.2707 14.96011438113747

Śledź CZ-6A DEB w czasie rzeczywistym z AllMySat

Download on the App Store